RH
73 82 88 82 80 75 87 90 79 69 60 65 63 61 52 46 49 50 47 46 45 50 43 41 42 38 41 47 53 60 78 84 69 63 64 64 60 55 60 40 36 36 40 37
84 91 67 57 70 74 76 82 80 60 54 61 64 68 55 53 51 46 43 42 46 43 45 44 43 44 46 48 57 73 79 72 65 62 63 74 70 51 41 40 42 40 35 36
89 71 67 73 77 76 82 87 70 63 64 61 65 61 38 31 34 37 41 40 38 40 41 44 44 47 54 60 67 74 74 68 64 63 56 57 56 51 37 36 46 43 36 36
91 70 74 83 83 79 86 70 70 75 84 77 65 71 40 34 30 28 32 33 37 38 38 40 44 49 58 63 77 76 71 65 58 57 54 59 57 52 36 40 38 35 33 32
84 85 93 82 72 74 77 66 73 76 88 83 72 88 54 48 46 42 36 36 36 38 42 44 47 48 55 74 81 77 70 62 55 54 54 69 68 50 35 34 33 33 32 32
78 71 74 79 71 67 65 77 78 81 89 96 69 78 55 41 36 34 33 32 42 46 47 46 47 51 68 83 85 79 70 62 55 53 56 54 58 35 35 35 34 30 31 32
84 86 75 70 76 73 72 99 95 97 98 83 61 80 56 40 39 36 34 33 31 38 42 53 63 71 80 87 86 76 69 64 55 50 46 40 35 29 30 30 32 31 29 30
93 90 82 77 74 82 88 89 91 91 87 73 63 78 56 43 35 33 34 34 35 39 51 58 63 72 77 86 82 71 68 63 53 48 42 34 32 32 32 31 30 27 27 27
95 92 84 85 78 68 96 98 72 87 76 94 67 57 45 40 45 45 49 53 50 43 54 61 68 73 78 84 78 71 67 60 53 48 42 37 38 38 36 30 28 28 27 25
79 98 80 84 71 75 88 74 97 99 95 87 78 76 57 46 40 64 65 62 60 53 52 68 73 77 81 80 75 68 61 58 50 44 39 37 34 31 29 28 28 27 25 26
82 89 84 94 96 77 94 98 98 90 90 79 66 57 42 38 64 73 72 68 72 69 54 64 76 81 83 77 71 63 57 51 43 38 34 31 30 28 25 25 25 25 25 26
75 90 99 86 62 64 64 78 80 97 84 89 74 54 56 66 68 75 76 72 80 80 70 80 84 77 75 70 62 56 49 42 38 32 29 28 27 26 24 24 25 24 26 28
77 95 98 88 84 69 96 87 90 94 98 93 85 54 33 46 55 71 78 75 83 85 84 80 76 74 70 64 54 46 39 34 31 28 27 27 27 26 25 26 26 27 29 30
67 91 89 83 84 91 99 97 96 98 97 77 77 58 42 38 40 48 78 81 86 86 82 77 73 66 60 53 45 37 33 30 29 28 28 29 28 28 28 29 29 30 30 31
82 99 95 91 83 94 99 96 97 99 86 91 59 55 43 41 43 73 80 74 81 90 83 75 70 61 52 45 38 33 31 30 28 29 31 33 32 32 32 33 33 32 33 35
82 98 100 96 81 83 99 95 95 94 90 78 68 67 43 59 67 68 66 80 84 86 82 74 66 56 49 42 36 33 32 31 30 33 36 36 35 34 36 35 33 36 38 37
96 100 100 94 79 94 99 94 95 93 83 77 90 65 52 55 57 60 70 88 76 82 78 70 61 54 47 38 35 36 31 32 34 36 36 37 35 34 36 32 33 37 37 38
88 99 99 98 98 98 88 77 80 81 75 70 66 58 59 64 78 78 72 78 68 78 76 68 58 50 41 34 32 33 33 35 37 38 37 36 35 34 32 30 33 35 37 38
83 84 99 99 96 81 67 74 84 81 87 68 68 62 62 64 74 78 75 70 76 76 71 64 56 46 39 35 33 34 37 38 38 37 36 33 31 31 29 33 35 37 39 39
85 81 97 99 99 96 68 66 76 73 84 68 61 60 61 73 84 72 79 80 80 77 72 64 52 43 38 35 33 35 38 36 37 36 34 32 31 29 32 36 39 42 41 38
98 96 96 97 99 82 68 68 78 74 62 61 69 65 77 76 76 77 74 76 76 74 66 54 47 42 37 34 33 37 36 38 38 34 33 31 31 33 38 41 41 42 42 42
90 96 96 95 93 91 66 80 79 58 68 71 72 78 79 82 78 76 72 73 72 69 60 50 45 41 36 34 33 36 40 37 34 33 33 34 38 37 42 46 45 44 47 47
95 78 82 79 76 65 70 62 65 71 74 75 81 81 78 77 75 71 67 62 59 55 51 45 43 41 38 35 34 39 39 34 33 32 39 42 42 42 43 44 48 46 51 52
88 87 90 82 74 77 75 74 74 80 83 88 86 80 77 78 70 66 61 58 55 52 48 43 41 41 41 37 37 36 35 32 32 39 44 44 45 47 46 44 47 51 55 57
85 89 86 85 78 78 70 75 77 83 82 82 77 75 71 67 67 62 59 55 51 49 46 43 42 42 42 37 36 34 33 32 38 44 49 51 50 49 49 49 51 55 56 58
88 84 87 81 69 68 67 78 79 80 83 79 73 72 68 63 63 58 56 51 48 48 45 44 42 41 39 36 37 36 36 36 40 45 48 51 51 52 52 54 52 54 52 54
Wind_Speed
2 5 9 11 6 4 1 3 11 7 8 11 15 22 19 18 17 18 17 17 16 13 14 12 10 8 8 7 8 8 11 13 12 10 11 7 7 7 6 6 8 10 7 9
3 10 9 8 5 10 11 13 15 11 9 12 14 28 18 18 21 20 20 18 18 16 13 11 10 8 9 9 10 10 11 14 11 9 7 6 7 6 6 6 8 7 9 10
6 4 5 8 5 11 10 13 12 17 9 14 17 27 17 16 21 20 21 21 20 19 18 16 12 12 9 11 12 11 13 14 11 13 12 10 9 7 5 6 6 5 7 8
6 8 4 4 8 10 17 7 10 10 6 8 2 14 7 7 14 13 12 14 19 20 19 18 15 12 13 13 9 10 12 13 13 15 14 19 11 11 5 6 6 7 10 10
4 6 5 12 12 9 7 5 6 8 8 12 13 8 7 1 4 8 11 14 15 16 17 19 16 15 12 11 12 11 13 13 14 14 15 12 12 8 8 9 11 9 9 9
7 3 5 8 7 14 1 3 4 3 6 11 10 11 21 6 8 5 8 11 11 13 14 17 13 11 10 10 11 11 14 12 13 13 14 15 16 16 12 10 9 8 7 7
3 15 6 4 5 3 12 3 3 5 7 8 5 11 21 9 16 15 13 13 13 12 12 11 10 11 11 14 13 12 14 13 13 14 14 14 14 17 18 15 11 12 9 6
4 5 11 9 13 7 14 11 6 6 6 4 2 10 9 14 16 14 13 16 16 11 9 12 14 13 14 16 16 16 16 15 14 13 13 12 12 9 9 10 10 8 8 8
3 5 2 7 3 11 5 12 10 9 12 10 9 13 11 13 9 3 7 10 13 12 10 12 12 14 14 15 17 17 17 15 14 14 11 12 11 13 11 13 11 9 10 9
1 5 3 1 5 9 10 1 5 6 6 9 6 7 11 5 5 3 8 13 13 10 10 10 11 13 13 13 13 15 16 16 14 13 11 11 13 13 13 12 12 11 10 11
5 4 3 4 10 10 9 8 7 4 5 6 7 9 7 6 6 3 9 13 13 13 11 11 11 10 12 12 13 14 15 16 14 13 13 15 14 14 12 12 11 11 11 10
8 4 5 12 11 16 19 20 17 8 11 5 4 20 4 6 4 5 9 11 10 11 6 5 10 12 14 14 13 14 14 15 13 13 14 15 14 14 13 12 11 10 10 9
9 5 5 6 2 6 12 19 19 11 4 14 7 11 3 2 5 6 7 10 8 7 4 6 9 11 13 14 14 14 14 14 14 14 15 14 14 14 13 12 11 10 10 9
10 4 8 10 15 9 9 14 19 19 8 16 20 21 15 16 13 10 6 9 7 4 1 5 9 11 12 12 14 14 14 14 14 14 14 13 13 13 12 11 10 10 9 8
9 8 10 19 26 23 24 25 17 21 24 12 18 22 15 14 12 2 3 9 10 6 5 6 8 11 13 14 13 13 14 15 13 14 13 12 12 12 12 11 10 9 8 7
5 6 5 21 22 23 20 16 15 20 21 24 22 27 12 6 5 2 6 11 13 9 8 8 10 13 14 14 14 14 14 14 14 13 13 12 12 12 11 10 9 8 7 6
4 3 3 14 10 17 5 5 9 11 17 14 18 17 2 5 10 12 10 13 16 12 11 12 13 12 12 13 15 15 14 13 13 13 12 12 12 12 10 9 9 7 6 5
6 3 3 10 9 4 3 2 8 16 14 18 18 13 6 7 8 16 16 15 10 11 12 12 11 11 11 13 13 14 13 13 13 12 12 11 11 11 9 8 8 6 4 4
13 6 5 5 7 8 1 6 1 5 7 18 18 17 16 10 5 8 6 5 6 10 11 12 12 13 13 14 14 15 13 12 12 11 12 11 11 11 9 8 7 5 4 3
5 11 3 3 4 5 3 4 2 5 3 6 12 12 7 5 2 3 8 6 7 11 12 15 14 14 14 12 14 15 13 12 11 11 11 10 10 10 8 7 6 3 3 1
4 3 8 7 5 8 5 6 2 3 4 5 3 6 6 3 3 2 3 7 8 9 14 14 13 13 13 13 15 14 12 11 10 11 11 10 8 9 8 6 4 3 2 3
6 5 4 2 3 7 2 2 2 4 5 2 2 2 6 7 8 6 7 7 10 12 12 12 14 12 11 12 15 14 12 10 11 11 10 10 8 6 6 6 4 4 3 3
3 6 3 7 7 4 3 5 2 1 4 5 3 1 9 9 6 7 8 10 10 12 10 10 13 14 10 10 13 16 10 12 11 11 10 9 8 6 5 5 4 2 3 3
4 3 3 3 4 6 5 2 1 4 2 4 1 4 4 9 8 10 10 9 11 10 11 11 14 14 13 12 12 14 12 11 11 11 9 7 7 6 4 3 2 2 2 2
4 3 4 5 8 6 8 3 4 3 4 7 7 6 10 13 10 10 11 12 11 10 10 10 12 13 13 13 12 10 10 11 10 9 7 6 5 4 3 2 1 1 2 2
5 7 5 6 4 3 3 2 3 5 3 6 9 12 11 12 14 13 12 10 11 11 11 12 13 15 12 12 11 9 8 9 10 8 5 4 3 2 2 2 2 5 6 9
Wind_Direction
155 207 209 202 202 217 133 257 261 272 299 312 273 277 274 274 266 269 267 270 266 256 252 259 252 243 251 230 207 196 176 173 156 150 142 136 141 130 112 104 104 105 104 118
141 232 231 242 221 240 247 262 270 288 278 277 293 281 275 264 257 251 254 250 248 253 247 250 246 233 218 225 206 179 179 171 167 160 137 114 134 117 107 106 99 111 128 108
188 176 191 191 211 238 236 241 261 271 296 279 280 279 264 251 253 249 249 254 250 244 241 240 236 219 210 206 203 182 171 167 156 135 116 102 101 103 101 107 106 105 115 105
240 231 187 172 220 208 256 208 246 258 271 272 130 291 252 263 269 264 239 244 241 240 237 236 227 212 203 208 181 175 166 160 150 152 144 151 152 153 151 133 122 127 111 114
218 185 173 221 234 176 236 191 207 223 238 279 238 266 281 331 279 266 253 241 237 237 231 229 225 210 205 176 177 166 160 162 158 158 156 149 142 126 121 119 118 116 112 111
218 180 171 196 214 198 106 289 276 242 227 244 230 205 277 259 237 257 259 259 244 243 234 234 227 213 187 155 157 162 162 161 159 155 158 151 143 137 135 137 133 134 123 118
248 234 193 174 200 185 180 202 228 229 215 250 200 191 246 301 295 272 272 265 257 241 239 227 195 185 175 167 164 159 160 160 159 152 150 146 145 148 149 146 144 145 134 128
220 304 191 184 213 189 190 196 217 231 213 249 216 235 245 226 252 268 288 288 286 253 234 215 199 189 186 171 163 160 159 153 157 150 138 131 133 137 138 140 141 138 132 128
195 264 15 199 203 216 174 215 233 271 265 266 236 262 294 257 256 298 305 309 292 261 225 221 201 184 176 173 169 161 151 147 149 140 126 122 125 136 140 133 129 129 125 124
170 276 204 258 184 239 232 195 180 195 247 241 246 248 235 277 261 307 339 342 333 300 238 205 194 179 171 167 154 145 143 141 135 129 130 127 130 129 125 127 128 127 121 122
139 184 233 139 206 210 195 220 213 251 216 252 274 255 211 216 152 6 340 346 338 325 271 210 186 161 146 139 142 136 132 130 128 125 126 126 125 123 122 123 125 123 121 123
184 221 249 229 216 203 219 223 215 228 214 215 236 259 156 147 167 57 2 345 352 342 298 169 147 141 138 133 133 133 129 125 126 127 125 123 121 121 121 123 123 124 119 115
166 213 295 292 10 229 229 223 219 235 242 226 232 256 229 199 18 32 358 348 6 3 37 103 127 139 140 137 132 131 127 121 121 125 123 122 123 124 125 125 124 120 119 115
172 210 217 251 264 253 246 231 223 221 235 246 233 263 268 296 301 325 359 358 357 331 259 140 131 131 128 130 128 127 119 120 123 123 124 125 127 126 126 123 120 120 119 116
178 252 238 252 261 271 266 266 235 213 230 229 254 248 262 252 260 276 326 318 338 251 200 168 141 133 127 125 123 123 121 122 127 123 124 125 123 120 119 118 119 118 111 105
201 264 266 273 269 267 269 274 233 219 228 240 255 264 266 276 185 198 333 324 289 255 193 160 144 141 136 135 132 127 125 123 126 123 123 125 122 121 120 121 120 114 107 104
208 240 275 283 319 300 259 261 208 214 219 224 237 246 268 292 281 301 294 255 262 230 171 160 155 148 141 138 136 132 128 124 121 121 127 127 124 121 121 122 119 114 107 109
239 203 249 287 307 294 289 312 257 215 231 225 249 245 239 260 300 271 265 261 253 167 152 145 139 133 129 127 120 120 122 120 119 123 127 126 122 121 122 121 117 114 109 98
213 225 280 283 315 277 136 329 43 177 269 231 229 242 237 243 234 286 330 302 155 147 143 137 133 130 130 126 127 121 116 117 123 130 129 127 125 124 126 120 118 113 105 85
171 212 222 324 285 293 278 314 283 126 308 330 215 234 215 160 299 292 331 350 95 115 127 129 129 125 123 130 128 120 122 126 129 130 124 122 124 126 121 122 115 92 82 68
160 180 230 248 279 281 270 304 294 26 286 350 282 218 139 181 93 123 350 45 65 98 113 115 119 126 131 131 123 120 126 123 119 114 114 113 111 114 118 110 92 103 82 33
177 160 203 189 258 290 187 351 75 248 297 269 297 235 142 112 118 107 83 72 88 94 100 108 112 113 121 126 122 119 110 117 114 113 110 110 114 112 107 108 112 84 60 19
240 189 197 181 223 260 256 237 296 237 254 305 336 100 138 137 126 131 114 96 89 98 96 103 111 107 97 107 118 112 124 122 116 111 111 109 104 102 105 104 99 84 30 11
244 179 215 359 290 256 273 260 34 3 360 325 5 121 95 116 113 107 100 94 88 81 94 107 110 104 95 92 99 113 122 119 114 110 113 116 113 106 90 88 87 59 360 334
210 149 207 261 284 294 294 263 102 56 48 69 57 79 108 112 95 107 93 88 90 93 96 102 106 101 96 103 104 110 113 113 108 113 116 108 93 101 105 69 85 348 290 287
189 198 174 229 235 167 279 46 99 96 83 86 98 88 77 99 102 97 89 90 96 99 103 97 92 97 100 101 101 99 104 118 120 116 112 115 116 98 74 49 355 356 358 344